Content
SEND FEEDBACK

Daily
Averages
Monthly
Summary
United States of America

MAURICEVILLE, TEXAS


Home > North America > United States > Texas
Elevation: 6 meters     Latitude: 30 14N     Longitude: 093 44W

WEATHER
 
SELECT A DAY
Number of Records: 110,713;   Date Range: 8/25/05 - 9/20/14
 
SHARE

PRINT THIS DATA

[ ← Previous Day ]
WEATHER ALMANAC - 3 FEBRUARY, 2013
[ Next Day → ]
[ °F ]   °C
Weather ElementAverageHighLow
Temperature13.3 °C21 °C (2:15 pm)8 °C (7:15 am)
Dewpoint7.2 °C12 °C (12:55 am)0 °C (12:15 pm)
Humidity74.4 %100 % (12:35 am)25 % (3:15 pm)
Barometer1024 hPa1027.4 hPa (9:35 am)1020 hPa (11:35 pm)
Wind Speed5.8 km/h16.7 km/h (11:35 am)
Weather ElementAverage
Visibility12.9 km
Wind DirectionESE (125.5 °)

Weather ElementTotal
Precipitation---
Heating Degree Days3.8 (Base 18.3)
Growing Degree Days4.5 (Base 10)
Averaged from 69 records on 3 February, 2013
WEATHER CONDITIONS BREAKOUT
WIND DIRECTION BREAKOUT
WEATHER BY HOUR - 3 FEBRUARY, 2013
[ °F ]   °C
Local TimeTemperatureDewpointHumidityBarometerVisibilityWind DirectionWind SpeedGust SpeedPrecipitationEventsConditions
12:35 AM10 °C10 °C100 %1024.7 hPa1.6 kmCalmMostly Cloudy
12:55 AM12 °C12 °C100 %1025.1 hPa0.3 kmCalmFogFog
1:35 AM11 °C11 °C100 %1025.1 hPa0.3 kmNNW (330°)7.4 km/hFogFog
1:55 AM12 °C12 °C100 %1025.1 hPa0.3 kmNNW (330°)9.3 km/hFogFog
2:15 AM12 °C12 °C100 %1025.1 hPa0.3 kmNW (320°)5.6 km/hFogFog
2:35 AM12 °C12 °C100 %1024.7 hPa0.8 kmNW (320°)5.6 km/hFogFog
2:55 AM11 °C11 °C100 %1025.1 hPa0.8 kmNNW (330°)5.6 km/hFogFog
3:15 AM11 °C11 °C100 %1024.7 hPa0.3 kmCalmFogFog
3:35 AM11 °C11 °C100 %1024.7 hPa0.8 kmCalmFogFog
3:55 AM10 °C10 °C100 %1024.7 hPa1.6 kmCalmMist
4:15 AM11 °C11 °C100 %1025.1 hPa6.4 kmNNW (330°)5.6 km/hClear
4:35 AM11 °C11 °C100 %1024.7 hPa8 kmCalmScattered Clouds
4:55 AM10 °C10 °C100 %1025.1 hPa8 kmNNW (340°)5.6 km/hMostly Cloudy
5:15 AM10 °C10 °C100 %1025.4 hPa16.1 kmNNW (330°)5.6 km/hScattered Clouds
5:35 AM10 °C10 °C100 %1025.7 hPa16.1 kmCalmClear
5:55 AM10 °C10 °C100 %1025.7 hPa11.3 kmNW (310°)5.6 km/hScattered Clouds
6:15 AM10 °C10 °C100 %1026.1 hPa16.1 kmNNW (330°)7.4 km/hMostly Cloudy
6:35 AM10 °C10 °C100 %1026.4 hPa16.1 kmNNW (340°)7.4 km/hOvercast
6:55 AM9 °C9 °C100 %1026.4 hPa16.1 kmNNW (340°)5.6 km/hMostly Cloudy
7:15 AM8 °C8 °C100 %1026.4 hPa16.1 kmNorth (360°)7.4 km/hScattered Clouds
7:35 AM8 °C8 °C100 %1026.4 hPa16.1 kmNorth (360°)7.4 km/hClear
7:55 AM9 °C9 °C100 %1026.8 hPa16.1 kmNNW (340°)7.4 km/hClear
8:15 AM10 °C10 °C100 %1026.8 hPa16.1 kmNorth (350°)7.4 km/hClear
8:35 AM11 °C11 °C100 %1026.8 hPa16.1 kmNorth (350°)7.4 km/hClear
8:55 AM12 °C10 °C88 %1027.1 hPa16.1 kmNorth (360°)7.4 km/hClear
9:15 AM13 °C10 °C82 %1027.1 hPa16.1 kmNorth (360°)9.3 km/hClear
9:35 AM14 °C10 °C77 %1027.4 hPa16.1 kmNorth (10°)7.4 km/hClear
9:55 AM15 °C8 °C63 %1027.4 hPa16.1 kmNNE (20°)9.3 km/hClear
10:15 AM16 °C6 °C52 %1027.4 hPa16.1 kmNNE (20°)14.8 km/hClear
10:35 AM17 °C5 °C45 %1027.4 hPa16.1 kmNNE (20°)13 km/hClear
10:55 AM17 °C3 °C39 %1027.1 hPa16.1 kmNE (40°)14.8 km/hClear
11:15 AM18 °C3 °C37 %1027.1 hPa16.1 kmNorth (10°)11.1 km/hClear
11:35 AM18 °C2 °C34 %1026.8 hPa16.1 kmNE (40°)16.7 km/hClear
11:55 AM18 °C1 °C32 %1026.4 hPa11.3 kmNE (50°)14.8 km/hClear
12:15 PM20 °C0 °C26 %1026.1 hPa16.1 kmNE (40°)14.8 km/hClear
12:35 PM20 °C1 °C28 %1025.7 hPa16.1 kmNorth (10°)9.3 km/hClear
12:55 PM20 °C0 °C26 %1025.1 hPa16.1 kmEast (90°)14.8 km/hClear
1:15 PM20 °C0 °C26 %1024.7 hPa16.1 kmNE (50°)7.4 km/hClear
1:35 PM20 °C0 °C26 %1024 hPa16.1 kmENE (60°)7.4 km/hClear
1:55 PM20 °C0 °C26 %1024 hPa16.1 kmCalmClear
2:15 PM21 °C1 °C27 %1023.7 hPa16.1 kmEast (80°)11.1 km/hClear
2:55 PM20 °C0 °C26 %1023 hPa16.1 kmCalmClear
3:15 PM21 °C0 °C25 %1023 hPa16.1 kmESE (110°)7.4 km/hClear
3:35 PM21 °C0 °C25 %1022.4 hPa16.1 kmCalmClear
3:55 PM20 °C0 °C26 %1022.4 hPa16.1 kmENE (60°)9.3 km/hClear
4:15 PM20 °C1 °C28 %1022 hPa16.1 kmCalmClear
4:35 PM19 °C1 °C30 %1022 hPa16.1 kmSSE (160°)11.1 km/hClear
4:55 PM18 °C5 °C42 %1022 hPa16.1 kmSouth (180°)14.8 km/hClear
5:15 PM17 °C7 °C52 %1022 hPa16.1 kmSouth (170°)13 km/hClear
5:35 PM16 °C8 °C59 %1022 hPa16.1 kmSouth (170°)11.1 km/hClear
5:55 PM16 °C8 °C59 %1022 hPa16.1 kmSouth (170°)11.1 km/hClear
6:15 PM15 °C8 °C63 %1021.7 hPa16.1 kmSouth (170°)5.6 km/hClear
6:35 PM13 °C8 °C72 %1021.7 hPa16.1 kmSSE (160°)5.6 km/hClear
6:55 PM13 °C8 °C72 %1021.7 hPa16.1 kmSouth (170°)5.6 km/hClear
7:15 PM12 °C8 °C77 %1021.7 hPa16.1 kmCalmClear
7:35 PM11 °C8 °C82 %1021.7 hPa16.1 kmCalmClear
7:55 PM10 °C8 °C87 %1021.7 hPa16.1 kmCalmClear
8:15 PM10 °C8 °C87 %1021.7 hPa16.1 kmCalmClear
8:35 PM11 °C10 °C94 %1021.7 hPa16.1 kmSouth (170°)5.6 km/hClear
8:55 PM11 °C10 °C94 %1021.3 hPa16.1 kmCalmClear
9:15 PM10 °C10 °C100 %1021.3 hPa16.1 kmCalmClear
9:35 PM9 °C9 °C100 %1021.3 hPa16.1 kmCalmClear
9:55 PM9 °C9 °C100 %1021 hPa16.1 kmCalmClear
10:15 PM10 °C10 °C100 %1021 hPa16.1 kmCalmClear
10:35 PM8 °C8 °C100 %1020.7 hPa16.1 kmCalmClear
10:55 PM8 °C8 °C100 %1020.7 hPa11.3 kmCalmClear
11:15 PM8 °C8 °C100 %1020.3 hPa11.3 kmCalmClear
11:35 PM8 °C8 °C100 %1020 hPa1.6 kmCalmMist
11:55 PM8 °C8 °C100 %1020 hPa4.8 kmCalmClear
Hourly data recorded from KORG, located 0 kilometers away from Mauriceville, Texas







STORIES FROM OUR PARTNERS